SP1JT-10 Weather Reports


time (UTC)temp
C
wind
direction
speed
KPH
gust
KPH
rain 1hr
cm
rain 24hr
cm
rain mn
cm
humidity
%
barometer
mb
20260502162916 24 0.0 0.0 0.00 0.00 0.00 24 1016.1
20260502161915 23 0.0 0.0 0.00 0.00 0.00 27 1016.5
20260502160915 23 0.0 0.0 0.00 0.00 0.00 25 1016.7
20260502151912 24 0.0 0.0 0.00 0.00 0.00 24 1017.3
20260502122913 23 0.0 0.0 0.00 0.00 0.00 29 1019.8
20260502121913 22 0.0 0.0 0.00 0.00 0.00 31 1020.2
20260502120913 21 0.0 0.0 0.00 0.00 0.00 32 1020.4
20260502115913 20 0.0 0.0 0.00 0.00 0.00 33 1020.9
20260502114914 20 0.0 0.0 0.00 0.00 0.00 34 1021.2
20260502113914 20 0.0 0.0 0.00 0.00 0.00 35 1021.4
20260502112914 19 0.0 0.0 0.00 0.00 0.00 36 1021.3
20260502111914 19 0.0 0.0 0.00 0.00 0.00 35 1021.6
20260502110913 18 0.0 0.0 0.00 0.00 0.00 36 1021.8
20260502104913 18 0.0 0.0 0.00 0.00 0.00 38 1022.1
20260502103912 18 0.0 0.0 0.00 0.00 0.00 38 1022.3
20260502102912 18 0.0 0.0 0.00 0.00 0.00 38 1022.4
20260502101914 18 0.0 0.0 0.00 0.00 0.00 37 1022.7
20260502100915 18 0.0 0.0 0.00 0.00 0.00 38 1022.9
20260502090914 17 0.0 0.0 0.00 0.00 0.00 42 1023.6
20260502064914 10 0.0 0.0 0.00 0.00 0.00 60 1025.2
20260502063914 10 0.0 0.0 0.00 0.00 0.00 61 1025.2
20260502062913 9 0.0 0.0 0.00 0.00 0.00 63 1025.3
20260502061913 8 0.0 0.0 0.00 0.00 0.00 65 1025.4
20260502060913 7 0.0 0.0 0.00 0.00 0.00 66 1025.5
20260502055915 7 0.0 0.0 0.00 0.00 0.00 69 1025.6
20260502055813 7 0.0 0.0 0.00 0.00 0.00 69 1025.6
20260502055612 7 0.0 0.0 0.00 0.00 0.00 70 1025.6
20260502055414 7 0.0 0.0 0.00 0.00 0.00 71 1025.5
20260502055313 7 0.0 0.0 0.00 0.00 0.00 70 1025.6
20260502054318 6 0.0 0.0 0.00 0.00 0.00 73 1025.7
20260502053343 5 0.0 0.0 0.00 0.00 0.00 74 1025.6
20260502051119 5 0.0 0.0 0.00 0.00 0.00 73 1025.5
20260502045913 5 0.0 0.0 0.00 0.00 0.00 73 1025.6
20260502044913 5 0.0 0.0 0.00 0.00 0.00 73 1025.5
20260502043912 5 0.0 0.0 0.00 0.00 0.00 72 1025.5
20260502042913 4 0.0 0.0 0.00 0.00 0.00 72 1025.5
20260502041913 5 0.0 0.0 0.00 0.00 0.00 73 1025.5
20260502040913 4 0.0 0.0 0.00 0.00 0.00 73 1025.5
20260502035913 4 0.0 0.0 0.00 0.00 0.00 74 1025.5
20260502032912 3 0.0 0.0 0.00 0.00 0.00 73 1025.7
20260502031913 4 0.0 0.0 0.00 0.00 0.00 73 1025.8
20260502030914 4 0.0 0.0 0.00 0.00 0.00 73 1025.8
20260502025913 4 0.0 0.0 0.00 0.00 0.00 73 1025.8
20260502022912 4 0.0 0.0 0.00 0.00 0.00 71 1025.8
20260502021915 5 0.0 0.0 0.00 0.00 0.00 71 1025.9
20260502020915 5 0.0 0.0 0.00 0.00 0.00 70 1025.9
20260502015913 5 0.0 0.0 0.00 0.00 0.00 69 1026.0
20260502014913 5 0.0 0.0 0.00 0.00 0.00 67 1026.0
20260502013913 5 0.0 0.0 0.00 0.00 0.00 68 1025.9
20260502012912 5 0.0 0.0 0.00 0.00 0.00 66 1026.0
20260502005913 6 0.0 0.0 0.00 0.00 0.00 65 1026.1
20260502004914 6 0.0 0.0 0.00 0.00 0.00 65 1026.1
20260502003913 6 0.0 0.0 0.00 0.00 0.00 64 1026.2
20260502002911 6 0.0 0.0 0.00 0.00 0.00 63 1026.4
20260502000914 6 0.0 0.0 0.00 0.00 0.00 61 1026.5
20260501235915 7 0.0 0.0 0.00 0.00 0.00 60 1026.6
20260501234916 7 0.0 0.0 0.00 0.00 0.00 60 1026.6
20260501233913 7 0.0 0.0 0.00 0.00 0.00 59 1026.7
20260501232913 7 0.0 0.0 0.00 0.00 0.00 58 1026.6
20260501231914 7 0.0 0.0 0.00 0.00 0.00 58 1026.6
20260501230913 7 0.0 0.0 0.00 0.00 0.00 57 1026.6
20260501225914 8 0.0 0.0 0.00 0.00 0.00 58 1026.7
20260501224913 8 0.0 0.0 0.00 0.00 0.00 59 1026.7
20260501223912 8 0.0 0.0 0.00 0.00 0.00 56 1026.7
20260501222914 8 0.0 0.0 0.00 0.00 0.00 56 1026.8
20260501221913 8 0.0 0.0 0.00 0.00 0.00 56 1026.9
20260501220912 8 0.0 0.0 0.00 0.00 0.00 56 1026.9
20260501215912 9 0.0 0.0 0.00 0.00 0.00 54 1027.0
20260501214914 9 0.0 0.0 0.00 0.00 0.00 53 1027.1
20260501213914 10 0.0 0.0 0.00 0.00 0.00 51 1027.2
20260501212913 10 0.0 0.0 0.00 0.00 0.00 51 1027.1
20260501211912 10 0.0 0.0 0.00 0.00 0.00 49 1027.3
20260501210913 10 0.0 0.0 0.00 0.00 0.00 48 1027.2
20260501205912 10 0.0 0.0 0.00 0.00 0.00 48 1027.3
20260501205812 10 0.0 0.0 0.00 0.00 0.00 48 1027.3
20260501205713 10 0.0 0.0 0.00 0.00 0.00 48 1027.4
20260501205613 10 0.0 0.0 0.00 0.00 0.00 48 1027.3
20260501205511 10 0.0 0.0 0.00 0.00 0.00 47 1027.3
20260501205412 10 0.0 0.0 0.00 0.00 0.00 47 1027.4
20260501205314 10 0.0 0.0 0.00 0.00 0.00 47 1027.3
20260501205214 11 0.0 0.0 0.00 0.00 0.00 47 1027.3
20260501205114 11 0.0 0.0 0.00 0.00 0.00 47 1027.3
20260501204115 11 0.0 0.0 0.00 0.00 0.00 45 1027.6
20260501203115 11 0.0 0.0 0.00 0.00 0.00 46 1027.7
20260501202115 11 0.0 0.0 0.00 0.00 0.00 45 1027.8
20260501201113 12 0.0 0.0 0.00 0.00 0.00 44 1027.9
20260501194456 12 0.0 0.0 0.00 0.00 0.00 41 1027.7
20260501192149 13 0.0 0.0 0.00 0.00 0.00 40 1027.5
20260501184914 15 0.0 0.0 0.00 0.00 0.00 37 1027.2
20260501183913 15 0.0 0.0 0.00 0.00 0.00 37 1027.0
20260501182914 16 0.0 0.0 0.00 0.00 0.00 35 1026.9
20260501181913 16 0.0 0.0 0.00 0.00 0.00 34 1026.8
20260501180913 17 0.0 0.0 0.00 0.00 0.00 34 1026.7
20260501175914 17 0.0 0.0 0.00 0.00 0.00 33 1026.5
20260501173913 18 0.0 0.0 0.00 0.00 0.00 32 1026.4
20260501172913 19 0.0 0.0 0.00 0.00 0.00 32 1026.2
20260501171912 20 0.0 0.0 0.00 0.00 0.00 30 1026.1
20260501170913 21 0.0 0.0 0.00 0.00 0.00 29 1025.8
20260501165915 22 0.0 0.0 0.00 0.00 0.00 28 1025.6
20260501164914 22 0.0 0.0 0.00 0.00 0.00 28 1025.7
20260501163913 22 0.0 0.0 0.00 0.00 0.00 27 1025.7